Anniston, AL

3:08 PM CDT on June 26, 2017 (GMT -0500)
Anniston Metro

Weather History for KANB - March, 2014

Change the Weather History Date:

Friday, March 7, 2014

  Actual Average Record
Temperature  
Mean Temperature 51 °F 52 °F  
Max Temperature 63 °F 64 °F 85 °F (1956)
Min Temperature 39 °F 41 °F 22 °F (1966)
Degree Days  
Heating Degree Days 14    
Month to date heating degree days 109  
Since 1 July heating degree days 2590  
Moisture  
Dew Point 40 °F    
Average Humidity 71    
Maximum Humidity 93    
Minimum Humidity 49    
Precipitation  
Precipitation 0.02 in 0.17 in 1.83 in (1961)
Month to date precipitation 1.26 1.22  
Year to date precipitation 8.42 10.82  
Sea Level Pressure  
Sea Level Pressure 30.02 in    
Wind  
Wind Speed 2 mph (South)    
Max Wind Speed 9 mph    
Max Gust Speed 12 mph    
Visibility 6 miles    
Events Rain    
T = Trace of Precipitation, MM = Missing Value Source: NWS Daily Summary

Daily Weather History Graph

Daily Weather History Graph

Search for Another Location

Airport or City:

Trip Planner

Search our weather history database for the weather conditions in past years. The results will help you decide how hot, cold, wet, or windy it might be!

Date:

Astronomy

Mar. 07, 2014 Rise Set
Actual Time 6:04 AM CST 5:45 PM CST
Civil Twilight 5:39 AM CST 6:09 PM CST
Nautical Twilight 5:10 AM CST 6:38 PM CST
Astronomical Twilight 4:41 AM CST 7:07 PM CST
Moon 10:14 AM CST (3/7) No Moon Set
Length of Visible Light 12h 30m
Length of Day
11h 40m
Waxing Crescent, 42% of the Moon is Illuminated
Mar 7
Waxing Crescent
Mar 8
First Quarter
Mar 16
Full
Mar 23
Last Quarter
Mar 30
New

Hourly Weather History & Observations

Time (CST) Temp. Windchill Dew Point Humidity Pressure Visibility Wind Dir Wind Speed Gust Speed Precip Events Conditions
12:33 AM 41.0 °F 38.0 °F 37.9 °F 89% 29.98 in 4.0 mi ENE 4.6 mph - N/A   Overcast
12:53 AM 41.0 °F 38.0 °F 37.9 °F 89% 30.01 in 5.0 mi ENE 4.6 mph - N/A   Overcast
1:07 AM 41.0 °F 38.0 °F 39.0 °F 93% 29.98 in 4.0 mi East 4.6 mph - N/A   Overcast
1:19 AM 41.0 °F - 39.0 °F 93% 29.98 in 3.0 mi Calm Calm - N/A   Overcast
1:33 AM 41.0 °F - 39.0 °F 93% 29.98 in 3.0 mi Calm Calm - N/A   Overcast
1:42 AM 39.9 °F - 39.0 °F 97% 29.97 in 3.0 mi Calm Calm - N/A   Overcast
1:53 AM 41.0 °F 39.0 °F 39.0 °F 93% 30.00 in 3.0 mi ESE 3.5 mph - N/A   Overcast
2:18 AM 41.0 °F 39.0 °F 39.0 °F 93% 29.97 in 5.0 mi Variable 3.5 mph - N/A   Overcast
2:35 AM 41.0 °F - 39.0 °F 93% 29.97 in 3.0 mi Calm Calm - N/A   Overcast
2:53 AM 41.0 °F - 39.0 °F 93% 30.00 in 3.0 mi Calm Calm - 0.01 in Rain Light Rain
3:53 AM 41.0 °F - 39.0 °F 93% 29.99 in 7.0 mi Calm Calm - 0.00 in   Overcast
4:13 AM 41.0 °F - 39.0 °F 93% 29.97 in 6.0 mi Calm Calm - N/A   Overcast
4:22 AM 39.9 °F 37.8 °F 39.0 °F 97% 29.97 in 5.0 mi WSW 3.5 mph - N/A   Overcast
4:35 AM 41.0 °F 39.0 °F 39.0 °F 93% 29.99 in 5.0 mi WSW 3.5 mph - N/A   Overcast
4:43 AM 41.0 °F - 39.0 °F 93% 29.99 in 5.0 mi Calm Calm - N/A   Overcast
4:53 AM 41.0 °F 38.0 °F 39.0 °F 93% 30.03 in 5.0 mi WSW 4.6 mph - N/A   Overcast
5:26 AM 39.9 °F 37.8 °F 39.0 °F 97% 30.02 in 6.0 mi SW 3.5 mph - N/A   Overcast
5:53 AM 39.9 °F 37.8 °F 39.0 °F 97% 30.05 in 4.0 mi SSW 3.5 mph - 0.01 in Rain Light Rain
6:07 AM 41.0 °F - 39.0 °F 93% 30.03 in 5.0 mi Calm Calm - 0.00 in   Overcast
6:22 AM 39.9 °F - 37.9 °F 93% 30.03 in 4.0 mi Calm Calm - 0.00 in   Overcast
6:29 AM 41.0 °F 38.0 °F 39.0 °F 93% 30.03 in 4.0 mi SSE 4.6 mph - 0.00 in   Overcast
6:53 AM 41.0 °F 38.0 °F 39.0 °F 93% 30.06 in 5.0 mi SSE 4.6 mph - 0.00 in   Overcast
7:53 AM 42.1 °F - 39.9 °F 92% 30.09 in 5.0 mi Calm Calm - N/A   Overcast
8:25 AM 44.1 °F 41.5 °F 42.1 °F 93% 30.06 in 5.0 mi East 4.6 mph - 0.00 in   Overcast
8:53 AM 46.0 °F 43.9 °F 39.0 °F 76% 30.09 in 6.0 mi Variable 4.6 mph - 0.00 in   Haze
9:53 AM 46.9 °F - 42.1 °F 83% 30.09 in 7.0 mi Calm Calm - N/A   Overcast
10:41 AM 50.0 °F - 43.0 °F 77% 30.06 in 10.0 mi Calm Calm - N/A   Overcast
10:53 AM 50.0 °F - 42.1 °F 74% 30.08 in 10.0 mi Calm Calm - N/A   Overcast
11:53 AM 53.1 °F - 44.1 °F 71% 30.05 in 10.0 mi Variable 3.5 mph - N/A   Overcast
12:35 PM 55.0 °F - 43.0 °F 64% 30.00 in 10.0 mi Calm Calm - N/A   Scattered Clouds
12:53 PM 55.0 °F - 44.1 °F 67% 30.00 in 10.0 mi ENE 4.6 mph - N/A   Partly Cloudy
1:53 PM 57.9 °F - 44.1 °F 60% 29.99 in 10.0 mi North - - N/A   Clear
2:53 PM 61.0 °F - 43.0 °F 52% 29.98 in 10.0 mi Variable 4.6 mph - N/A   Clear
3:53 PM 61.0 °F - 41.0 °F 48% 29.99 in 10.0 mi West 5.8 mph - N/A   Clear
4:53 PM 61.0 °F - 41.0 °F 48% 29.99 in 10.0 mi SW 4.6 mph - N/A   Clear
5:53 PM 51.1 °F - 44.1 °F 77% 30.02 in 10.0 mi WSW 3.5 mph - N/A   Clear
6:53 PM 48.0 °F - 43.0 °F 83% 30.03 in 10.0 mi Calm Calm - N/A   Clear
7:53 PM 48.0 °F - 43.0 °F 83% 30.04 in 10.0 mi Calm Calm - N/A   Clear
8:53 PM 44.1 °F - 41.0 °F 89% 30.06 in 10.0 mi Calm Calm - N/A   Clear
9:53 PM 44.1 °F - 42.1 °F 93% 30.06 in 10.0 mi Calm Calm - N/A   Clear
10:53 PM 44.1 °F - 42.1 °F 93% 30.07 in 10.0 mi Calm Calm - N/A   Clear
11:15 PM 41.0 °F - 39.9 °F 96% 30.05 in 1.8 mi Calm Calm - N/A   Clear
11:24 PM 42.1 °F - 39.0 °F 89% 30.06 in 2.5 mi Calm Calm - N/A   Clear
11:33 PM 39.9 °F - 39.0 °F 97% 30.06 in 0.8 mi Calm Calm - N/A   Clear
11:43 PM 39.9 °F 37.8 °F 39.0 °F 97% 30.06 in 2.0 mi WSW 3.5 mph - N/A   Clear
11:53 PM 39.9 °F - 37.9 °F 93% 30.08 in 1.0 mi Calm Calm - N/A   Clear